Regional Weather Roundup
Issued by NWS Northern Indiana

Home | Current Version | Previous Version | Text Only | Print | Product List | Glossary On
Versions: 1 2 3 4 5 6 7 8 9 10 11 12 13 14 15 16 17 18 19 20 21 22 23 24 25 26 27 28 29 30 31 32 33 34 35 36 37 38 39 40 41 42 43 44 45 46 47 48 49 50
000
ASUS43 KIWX 060910
RWRIWX

KIWX WEATHER ROUNDUP
NATIONAL WEATHER SERVICE NORTHERN INDIANA
400 AM EST FRI MAR 06 2015

NOTE: "FAIR" INDICATES FEW OR NO CLOUDS BELOW 12,000 FEET WITH NO
SIGNIFICANT WEATHER AND/OR OBSTRUCTIONS TO VISIBILITY.

* THESE STATIONS ARE NOT UNDER NWS QUALITY CONTROL. THEY ALSO MAY NOT
  REPORT WEATHER SUCH AS PRECIPITATION OR FOG.

INZ001>027-061000-
NORTHERN INDIANA

CITY           SKY/WX    TMP DP  RH WIND       PRES   REMARKS
GARY*          PTCLDY     6  -3  68 CALM      30.51F
VALPARAISO     MOCLDY    -1  -5  82 S3        30.49F
MICHIGAN CITY* PTCLDY     5  -6  61 SW5       30.50F WCI  -4
LAPORTE*       MOCLDY    -1  -6  82 CALM      30.49F
KNOX*            N/A      1  -9  60 S5        30.51S WCI  -8
SOUTH BEND     PTCLDY     1  -4  79 CALM      30.49F
GOSHEN         MOCLDY     1  -4  79 S6        30.48F WCI -10
MONTICELLO*    MOCLDY    -3  -7  84 CALM      30.53S
LOGANSPORT*    PTCLDY    -6  -9  84 S5        30.53S WCI -17
ROCHESTER*     MOCLDY     5   0  78 CALM      30.51F
WARSAW*        MOCLDY     3  -2  78 CALM      30.49F
ANGOLA*        CLEAR     -2 -17  50 CALM      30.45F
FORT WAYNE     MOCLDY     0  -5  79 W6        30.51F WCI -12
HUNTINGTON*    MOCLDY     0  -7  72 CALM      30.50F
PERU/GRISSOM   PTCLDY    -1  -5  83 S5        30.50F WCI -11
MARION*        MOCLDY    -6 -11  80 CALM      30.52F

$$
INZ028>050-061000-
CENTRAL INDIANA

CITY           SKY/WX    TMP DP  RH WIND       PRES   REMARKS
LAFAYETTE      MOCLDY    -4  -7  87 CALM      30.55F
KOKOMO*          N/A    N/A N/A N/A MISG        N/A
MUNCIE*        MOCLDY     3  -2  79 W3        30.51F
INDIANAPOLIS   PTCLDY     6  -2  69 CALM      30.52F

$$
MIZ043>046-050>051-056>058-064>065-071>073-077>080-061000-
SOUTHWEST LOWER MICHIGAN

CITY           SKY/WX    TMP DP  RH WIND       PRES   REMARKS
BATTLE CREEK   MOCLDY     4  -1  80 SW7       30.45F WCI  -8
BENTON HARBOR  CLEAR      5   1  83 S6        30.48F WCI  -6
COLDWATER*     MOCLDY    -5 -10  79 SW3       30.46F
HILLSDALE*     PTCLDY     4   0  84 CALM      30.44F
HOLLAND        PTCLDY     4  -1  80 S6        30.45F WCI  -7
GRAND RAPIDS   CLOUDY     8   2  76 S9        30.44F WCI  -5
KALAMAZOO      MOCLDY     1  -3  83 SW7       30.46F WCI -12
STURGIS*       MOCLDY     1  -2  85 CALM      30.46F
THREE RIVERS*  FAIR       0  -4  83 S5        30.48F WCI -10

$$
OHZ001>008-015>018-024>025-061000-
NORTHWEST OHIO

CITY           SKY/WX    TMP DP  RH WIND       PRES   REMARKS
WAUSEON*       FAIR       0  -4  85 W5        30.50F WCI -10
DEFIANCE       MOCLDY     1  -4  79 CALM      30.52F
FINDLAY        PTCLDY     5   0  79 SW7       30.50S WCI  -7
TOLEDO EXPRESS PTCLDY    -1  -4  87 W6        30.51S WCI -13
TOLEDO METCALF PTCLDY     5  -2  72 SW5       30.52S WCI  -4
LIMA           PTCLDY     8   3  80 SW5       30.50S WCI   0

$$
AND FOR LAKE MICHIGAN COASTAL AND OPEN LAKE BUOY OBSERVATIONS

STATION/POSITION TEMP    WIND        PRES    VSBY  WAVE
                 AIR SEA DIR/SP/G                  HT/PER
                 (F)     (DEG/KT/KT) (MB)    (MI)  (FT/S)
CALUMET HARBOR     7                 1031.4F
MICHIGAN CITY      6     180/  8/ 10   N/A
SAINT JOSEPH      10     180/  8/ 12 1032.5S

$$
&&



USA.gov is the U.S. government's official web portal to all federal, state and local government web resources and services.